{"data":{"norad_id":52699,"intl_designator":"2022-053AV","name":"STARLINK-3987","alt_names":[],"object_type":"PAYLOAD","status":"ACTIVE","operator":null,"country":"US","launch_date":"2022-05-18","launch_site_code":"AFETR","launch_vehicle":null,"mission":null,"orbit_class":"UNKNOWN","rcs_meters":null,"size_class":null,"mass_kg":null,"dimensions":null,"purposes":["comms"],"wikipedia_slug":null,"has_3d_model":false,"image_url":null,"decayed_at":null,"tle_current":{"epoch":"2026-05-25T00:20:14.288064Z","epoch_age_seconds":76973,"freshness":"FRESH","line1":"1 52699U 22053AV  26145.01405426 -.00007621  00000+0 -46075-3 0  9995","line2":"2 52699  53.2119 156.5180 0001295  93.4838 266.6302 15.08876530222769","mean_motion":15.0887653,"eccentricity":0.0001295,"inclination_deg":53.2119,"raan_deg":156.518,"arg_perigee_deg":93.4838,"mean_anomaly_deg":266.6302,"bstar":-0.00046075,"rev_number":22276,"period_min":95.435244128292,"perigee_km":538.73588256985,"apogee_km":540.52758467186,"semimajor_km":6917.7687336209,"source":"CELESTRAK","updated_at":"2026-05-25T13:38:17.238074Z"}}}